Location: ??????????
(54.8537°N, 38.8755°E)
Time: 01:17:23
(UTC+00:00)

Transit 4A - Pass Details

Date: 16 September 2024
Orbit: 865 x 977 km, 66.8° (Epoch: 09 October)

Event Time Altitude Azimuth Distance (km) Brightness Sun altitude
Exits shadow 23:58:02 35° 164° (SSE) 1,400 8.6 -24.3°
Maximum altitude 23:59:54 46° 119° (ESE) 1,188 8.5 -24.1°
Drops below altitude 10° 00:05:37 10° 48° (NE) 2,613 11.4 -23.5°
Sets 00:08:16 0° 43° (NE) 3,577 12.4 -23.3°
